COSMOS 1275 DEB, 12722

Orbit data source: Space-Track

COSMOS 1275 DEB, 12722 is space debris in LEO originally from a launch on Thu, 04 Jun 1981 UTC launched from the Plesetsk Missile And Space Complex (PKMTR). Debris objects in space refer to the collection of defunct objects orbiting the Earth. Examples of debris include non-operational satellites, rocket bodies, and fragments generated from explosions, collisions, or faulty payload assembly.

Loading next visibility...
Identifier
12722, 1981-053BP
Orbit
LEO
Country
Flag of CISCIS
Related business
Manufacturer
Unknown
Mission
Spacecraft
Bus & Motor
Unknown
Mass
Unknown
Launch date (UTC)
1981-06-04 (45 years ago)
Launch vehicle
Unknown
Launch site
Plesetsk Missile And Space Complex (PKMTR)
Object type
Payload
Rocket body
Debris
Shape & HBR
Unknown shape, 0.1 m
Radar Cross Section
Small (<0.1 m²)

Expand to show TLE details & history
Last TLE update: 1 day ago

TLE from 1 day ago
0 COSMOS 1275 DEB
1 12722U 81053BP  25348.64649050  .00000997  00000-0  79309-3 0  9993
2 12722  82.9012 213.6002 0065797  22.2171 338.1820 13.89272351233241
Epoch: 2025-12-14T15:30Z
TLE epoch observation values (Epoch: 2025-12-14T15:30:56.779Z)
Latitude
-0°
Longitude
-102.6928°
Altitude
889.488 km
Speed
7.43 km/s
True Right ascension
14h 14m 24s
True Declination
0° 00' 00"
Sunlit
Object was in daylight at epoch
Visualization orbit readout
Latitude
Unknown
Longitude
Unknown
Altitude
Unknown
Speed
Unknown
Apparent Right ascension
Unknown
Apparent Declination
Unknown
Sunlit
N/A
Visualization observer readout
Local Sidereal Time
19:00:57
Azimuth
Unknown
Elevation
Unknown
Doppler factor
Unknown
Orbital elements
Apogee altitude
976.387 km
Perigee altitude
880.238 km
Semi-major axis
7,306.449 km
Eccentricity
0.00658
Inclination
82.9012°
RAAN
213.6002°
Arg. of periapsis
22.2171°
True anomaly
337.89962°
Mean anomaly
338.182°
Eccentric anomaly
338.04103°
Mean motion
3.47523 °/min
Orbital period
103.59 mins
BSTAR
0.00079309
Loading maneuver chart data...
Computing Atmospheric mass density...
Loading historical data...
Loading historical data...
Loading historical data...
Loading historical data...
Loading historical data...
Loading historical data...
Loading historical data...

Documentation

Showing up to 5 results
|